Location: Eymir
(36.7333°N, 29.7833°E)
Time: 04:03:07
(UTC+00:00)

Cosmos 1140 Rocket - Visible Passes

Search period start: 21 April 2026 00:00
Search period end: 01 May 2026 00:00
Orbit: 739 x 762 km, 74.1° (Epoch: 20 April)

Date Brightness Start Highest point End Pass type
(mag) Time Alt. Az. Time Alt. Az. Time Alt. Az.
21 Apr 5.3 18:31:24 10° NNE 18:34:15 15° ENE 18:34:15 15° ENE visible
21 Apr 5.1 20:11:28 10° NNW 20:14:09 30° NW 20:14:09 30° NW visible
22 Apr 4.2 19:29:08 10° NNW 19:32:51 47° N 19:32:51 47° N visible
23 Apr 4.3 18:47:12 10° N 18:51:35 34° ENE 18:51:35 34° ENE visible
23 Apr 5.7 20:29:19 10° NW 20:31:30 19° WNW 20:31:30 19° WNW visible
24 Apr 5.0 18:05:47 10° NNE 18:09:20 18° ENE 18:10:21 17° ENE visible
24 Apr 4.5 19:46:21 10° NNW 19:50:15 41° WNW 19:50:15 41° WNW visible
25 Apr 3.3 19:03:55 10° NNW 19:09:03 85° ENE 19:09:03 85° ENE visible
26 Apr 3.9 18:21:52 10° N 18:26:43 42° ENE 18:27:54 36° ESE visible
26 Apr 5.5 20:04:28 10° NW 20:07:49 19° W 20:07:49 19° W visible
27 Apr 4.8 17:40:16 10° NNE 17:44:13 22° ENE 17:46:46 15° E visible
27 Apr 4.4 19:21:17 10° NW 19:25:59 38° WSW 19:26:42 36° WSW visible
28 Apr 3.4 18:38:43 10° NNW 18:43:49 80° WSW 18:45:37 41° S visible
29 Apr 3.7 17:56:33 10° N 18:01:32 50° ENE 18:04:36 22° SE visible
29 Apr 5.7 19:39:44 10° WNW 19:42:41 16° W 19:44:31 13° WSW visible
30 Apr 4.6 17:14:49 10° N 17:19:05 26° ENE 17:23:18 10° ESE visible
30 Apr 4.9 18:56:14 10° NW 19:00:43 32° W 19:03:34 18° SSW visible
